Regional Weather Roundup
Issued by NWS

Home | Current Version | Previous Version | Graphics & Text | Print | Product List | Glossary On
Versions: 1 2 3 4 5 6 7 8 9 10 11 12 13 14 15 16 17 18 19 20 21 22 23 24 25 26 27 28 29 30 31 32 33 34 35 36 37 38 39 40 41 42 43 44 45 46 47 48 49 50
000
ASUS43 KLOT 301203
RWRIL

ILLINOIS REGIONAL WEATHER ROUNDUP
NATIONAL WEATHER SERVICE CHICAGO/ROMEOVILLE IL
700 AM CDT MON MAY 30 2016

NOTE: "FAIR" INDICATES FEW OR NO CLOUDS BELOW 12,000 FEET WITH NO
SIGNIFICANT WEATHER AND/OR OBSTRUCTIONS TO VISIBILITY.

* THESE STATIONS ARE NOT UNDER NWS QUALITY CONTROL. THEY ALSO MAY NOT
  REPORT WEATHER SUCH AS PRECIPITATION OR FOG.

ILZ001-002-007-009-015-016-024-301300-
NORTHWEST ILLINOIS

CITY           SKY/WX    TMP DP  RH WIND       PRES   REMARKS
MOLINE         SUNNY     68  60  75 CALM      30.02R
6HR MIN TEMP:  61; 6HR MAX TEMP:  71;

STERLING*      SUNNY     66  61  84 S5        30.03R
$$

ILZ003-004-008-010-011-017-018-301300-
NORTH CENTRAL ILLINOIS

CITY           SKY/WX    TMP DP  RH WIND       PRES   REMARKS
ROCKFORD       MOSUNNY   64  60  87 CALM      30.05R
6HR MIN TEMP:  60; 6HR MAX TEMP:  67; 6HR PCP:  0.01;

FREEPORT*      SUNNY     62  59  91 CALM      30.05R
ROCHELLE*      SUNNY     65  60  86 CALM      30.04R
$$

ILZ005-006-012>014-019>023-301300-
NORTHEAST ILLINOIS

CITY           SKY/WX    TMP DP  RH WIND       PRES   REMARKS
CHICAGO-OHARE  MOSUNNY   68  60  75 CALM      30.02R
6HR MIN TEMP:  63; 6HR MAX TEMP:  68;

CHICAGO-MIDWAY MOSUNNY   69  58  67 CALM      30.02S
6HR MIN TEMP:  65; 6HR MAX TEMP:  70;

AURORA         SUNNY     66  60  81 SW5       30.03S
6HR MIN TEMP:  60; 6HR MAX TEMP:  66;

LANSING*       SUNNY     65  59  81 CALM      30.04R
WAUKEGAN       SUNNY     67  59  75 W5        30.01S
6HR MIN TEMP:  62; 6HR MAX TEMP:  67;

DUPAGE AIRPORT SUNNY     65  61  87 S3        30.02S
6HR MIN TEMP:  60; 6HR MAX TEMP:  65; 6HR PCP: TRACE;

WHEELING       SUNNY     69  57  65 CALM      30.02S
6HR MIN TEMP:  62; 6HR MAX TEMP:  69;

NORTHERLY ISL    N/A     70  57  63 W8          N/A
NORTHERLY ISL    N/A     70  57  63 W8          N/A
$$

LMZ740>746-301300-
SOUTHERN LAKE MICHIGAN

STATION/POSITION SKY/WX   TEMP    WIND        PRES    VSBY  WAVE
                          AIR SEA DIR/SP/G                  HT/PER
                          (F)     (DEG/KT/KT) (MB)    (MI)  (FT/S)
SOUTHERN BUOY              56 51  240/  6/  8 1015.7          0
WILMETTE HARBOR            62 55  330/  6/  8   N/A           0
HARRISON CRIB              71     270/ 10/ 11   N/A
BURNHAM HARBOR             70     270/  9/  9   N/A
CALUMET HARBOR             66     240/  4/  6 1016.1R
BURNS HARBOR               66     180/  5/  9 1017.3R
MICHIGAN CITY              67     180/  7/  8   N/A
MICHIGAN CITY 6N           62 58  210/  6/  8   N/A           0
ST. JOSEPH                 62 61  250/  4/  8   N/A           1
$$

ILZ025>027-034>036-040-047-049-050-058-095>099-301300-
WEST-CENTRAL ILLINOIS

CITY           SKY/WX    TMP DP  RH WIND       PRES   REMARKS
QUINCY         MOSUNNY   66  63  90 SW5       30.07R
MACOMB*        SUNNY     64  62  94 CALM      30.06R
PITTSFIELD*    MOSUNNY   68  63  84 CALM      30.08R
$$

ILZ028>032-037-038-041>044-048-051>054-059>061-301300-
CENTRAL ILLINOIS

CITY           SKY/WX    TMP DP  RH WIND       PRES   REMARKS
BLOOMINGTON    SUNNY     64  62  93 SW5       30.07R
DECATUR        CLOUDY    66  60  81 MISG      30.06S
PEORIA         SUNNY     65  60  84 CALM      30.05R
6HR MIN TEMP:  62; 6HR MAX TEMP:  66;

SPRINGFIELD    PTSUNNY   69  63  81 CALM      30.06R
6HR MIN TEMP:  63; 6HR MAX TEMP:  69;

TAYLORVILLE    NOT AVBL
$$

ILZ033-039-045-046-055>057-062-063-301300-
EAST-CENTRAL ILLINOIS

CITY           SKY/WX    TMP DP  RH WIND       PRES   REMARKS
CHAMPAIGN      SUNNY     66  59  78 CALM      30.06S
MATTOON        SUNNY     67  60  78 CALM      30.06S
$$

ILZ079-100>102-301300-
SOUTHWEST ILLINOIS

CITY           SKY/WX    TMP DP  RH WIND       PRES   REMARKS
ALTON          MOSUNNY   64  63  94 CALM      30.07S
BELLEVILLE     SUNNY     66  66 100 CALM      30.06R
CAHOKIA*       SUNNY     67  63  87 CALM      30.07R
SPARTA*        SUNNY     65  63  93 CALM      30.08S
$$

ILZ064>066-069>071-074>076-080>082-084>086-088>090-092>094-301300-
SOUTH-CENTRAL ILLINOIS

CITY           SKY/WX    TMP DP  RH WIND       PRES   REMARKS
CARBONDALE     SUNNY     65  62  90 CALM      30.07S
6HR MIN TEMP:  61; 6HR MAX TEMP:  65;

MARION         MOSUNNY   63  63 100 SW3       30.08S
MT. VERNON     SUNNY     63  59  88 CALM      30.08S
SALEM*         SUNNY     67  64  89 CALM      30.08S
$$

ILZ067-068-072-073-078-083-087-091-301300-
SOUTHEAST ILLINOIS

CITY           SKY/WX    TMP DP  RH WIND       PRES   REMARKS
LAWRENCEVILLE  SUNNY     67  64  90 NW3       30.07R
FLORA*         SUNNY     67  64  93 CALM      30.07S
HARRISBURG*    SUNNY     65  64  96 CALM      30.07S
ROBINSON*      SUNNY     60  60  99 CALM      30.08S
$$

ABBREVIATIONS USED IN REMARKS
   TC - TEMPERATURE IN CELSIUS
  WCI - WIND CHILL INDEX
   HX - HEAT INDEX
  VSB - VISIBILITY
$$





USA.gov is the U.S. government's official web portal to all federal, state and local government web resources and services.